CZ-4 DEB, 26266

Orbit data source: Space-Track

CZ-4 DEB, 26266 is space debris in SSO originally from a launch on Thu, 14 Oct 1999 UTC launched from the Taiyaun Space Center, China (TSC). Debris objects in space refer to the collection of defunct objects orbiting the Earth. Examples of debris include non-operational satellites, rocket bodies, and fragments generated from explosions, collisions, or faulty payload assembly.

Loading next visibility...
Identifier
26266, 1999-057FC
Orbit
SSO
Country
Flag of CNCN / PRC
Related business
Manufacturer
Unknown
Mission
Spacecraft
Bus & Motor
Unknown
Mass
Unknown
Launch date (UTC)
1999-10-14 (26 years ago)
Launch vehicle
Unknown
Launch site
Taiyaun Space Center, China (TSC)
Object type
Payload
Rocket body
Debris
Shape & HBR
Unknown shape, 0.1 m
Radar Cross Section
Small (<0.1 m²)

Expand to show TLE details & history
Last TLE update: 1 day ago

TLE from 1 day ago
0 CZ-4 DEB
1 26266U 99057FC  25296.47028242  .00010451  00000-0  16784-2 0  9994
2 26266  98.4274  23.3278 0074828 102.4907 258.4683 14.69938501348417
Epoch: 2025-10-23T11:17Z
TLE epoch observation values (Epoch: 2025-10-23T11:17:12.401Z)
Latitude
0.00006°
Longitude
-178.10295°
Altitude
675.166 km
Speed
7.513 km/s
True Right ascension
01h 33m 18s
True Declination
0° 00' 00"
Sunlit
Object was in full shadow at epoch
Visualization orbit readout
Latitude
Unknown
Longitude
Unknown
Altitude
Unknown
Speed
Unknown
Apparent Right ascension
Unknown
Apparent Declination
Unknown
Sunlit
N/A
Visualization observer readout
Local Sidereal Time
12:07:01
Azimuth
Unknown
Elevation
Unknown
Doppler factor
Unknown
Orbital elements
Apogee altitude
710.995 km
Perigee altitude
605.69 km
Semi-major axis
7,036.48 km
Eccentricity
0.00748
Inclination
98.4274°
RAAN
23.3278°
Arg. of periapsis
102.4907°
True anomaly
257.62974°
Mean anomaly
258.4683°
Eccentric anomaly
258.04886°
Mean motion
3.67714 °/min
Orbital period
97.9 mins
BSTAR
0.0016784
Loading maneuver chart data...
Computing Atmospheric mass density...

Documentation

Showing up to 5 results
|